Change the Weather History Date:

Thursday, April 25, 2013

  Actual Average Record
Temperature  
Mean Temperature 47 °F 49 °F  
Max Temperature 61 °F 62 °F 90 °F (2009)
Min Temperature 33 °F 36 °F 18 °F (1965)
Degree Days  
Heating Degree Days 18 16  
Month to date heating degree days 516 524  
Since 1 July heating degree days 6433 6771  
Cooling Degree Days 0 0  
Month to date cooling degree days 0 0  
Year to date cooling degree days 0 0  
Moisture  
Dew Point 32 °F    
Average Humidity 46    
Maximum Humidity 72    
Minimum Humidity 20    
Precipitation  
Precipitation 0.02 in 0.11 in 1.58 in (1945)
Month to date precipitation 1.88 2.83  
Year to date precipitation 8.69 11.42  
Snow  
Snow 0.00 in 0.00 in 6.00 in (1874)
Month to date snowfall 0.2 2.7  
Since 1 July snowfall 83.4 61.3  
Snow Depth 0.00 in    
Sea Level Pressure  
Sea Level Pressure 30.05 in    
Wind  
Wind Speed 10 mph (WNW)    
Max Wind Speed 21 mph    
Max Gust Speed 31 mph    
Visibility 10 miles    
Events Rain    
T = Trace of Precipitation, MM = Missing Value Source: NWS Daily Summary

Daily Weather History Graph

Daily Weather History Graph

Search for Another Location

Airport or City:

Trip Planner

Search our weather history database for the weather conditions in past years. The results will help you decide how hot, cold, wet, or windy it might be!

Date:

Astronomy

Apr. 25, 2013 Rise Set
Actual Time 5:47 AM EDT 7:40 PM EDT
Civil Twilight 5:17 AM EDT 8:11 PM EDT
Nautical Twilight 4:39 AM EDT 8:48 PM EDT
Astronomical Twilight 3:59 AM EDT 9:29 PM EDT
Moon 7:51 PM EDT (4/25) 5:28 AM EDT (4/25)
Length of Visible Light 14h 54m
Length of Day
13h 53m
Full, 100% of the Moon is Illuminated
Apr 25
Full
Apr 25
Full
May 2
Last Quarter
May 9
New
May 18
First Quarter

Hourly Weather History & Observations

Time (EDT) Temp. Dew Point Humidity Pressure Visibility Wind Dir Wind Speed Gust Speed Precip Events Conditions
12:51 AM 59.0 °F 46.9 °F 64% 29.76 in 10.0 mi South 12.7 mph 20.7 mph N/A   Mostly Cloudy
1:51 AM 57.0 °F 48.0 °F 72% 29.78 in 10.0 mi South 10.4 mph - N/A   Scattered Clouds
2:51 AM 57.0 °F 48.9 °F 74% 29.81 in 10.0 mi SW 12.7 mph 21.9 mph N/A   Overcast
3:48 AM 53.6 °F 50.0 °F 88% 29.84 in 7.0 mi SW 10.4 mph - 0.02 in Rain Light Rain
3:51 AM 54.0 °F 50.0 °F 86% 29.84 in 9.0 mi SW 11.5 mph 20.7 mph 0.02 in Rain Light Rain
4:06 AM 53.6 °F 48.2 °F 82% 29.85 in 10.0 mi West 10.4 mph - 0.00 in   Overcast
4:51 AM 53.1 °F 39.9 °F 61% 29.88 in 10.0 mi West 17.3 mph 26.5 mph 0.00 in   Mostly Cloudy
5:51 AM 48.9 °F 35.1 °F 59% 29.94 in 10.0 mi WNW 13.8 mph 20.7 mph N/A   Scattered Clouds
6:51 AM 46.9 °F 32.0 °F 56% 29.99 in 10.0 mi WNW 12.7 mph 25.3 mph N/A   Clear
7:51 AM 48.0 °F 32.0 °F 54% 30.02 in 10.0 mi West 15.0 mph 20.7 mph N/A   Clear
8:51 AM 51.1 °F 30.9 °F 46% 30.04 in 10.0 mi WNW 17.3 mph 23.0 mph N/A   Clear
9:51 AM 53.1 °F 28.9 °F 40% 30.06 in 10.0 mi NW 16.1 mph 26.5 mph N/A   Clear
10:51 AM 55.9 °F 28.9 °F 36% 30.07 in 10.0 mi NW 13.8 mph 21.9 mph N/A   Clear
11:51 AM 57.0 °F 28.0 °F 33% 30.09 in 10.0 mi NNW 12.7 mph 20.7 mph N/A   Clear
12:51 PM 57.9 °F 26.1 °F 30% 30.11 in 10.0 mi NW 16.1 mph 24.2 mph N/A   Clear
1:51 PM 59.0 °F 27.0 °F 29% 30.12 in 10.0 mi NW 9.2 mph 18.4 mph N/A   Clear
2:51 PM 61.0 °F 26.1 °F 26% 30.11 in 10.0 mi North 8.1 mph - N/A   Clear
3:51 PM 60.1 °F 23.0 °F 24% 30.11 in 10.0 mi WNW 12.7 mph - N/A   Clear
4:51 PM 60.1 °F 19.9 °F 21% 30.13 in 10.0 mi WNW 11.5 mph - N/A   Clear
5:51 PM 59.0 °F 19.0 °F 21% 30.15 in 10.0 mi WNW 11.5 mph - N/A   Clear
6:51 PM 57.0 °F 21.0 °F 25% 30.17 in 10.0 mi NNW 8.1 mph - N/A   Clear
7:51 PM 52.0 °F 21.0 °F 30% 30.20 in 10.0 mi NNW 4.6 mph - N/A   Clear
8:51 PM 48.0 °F 24.1 °F 39% 30.23 in 10.0 mi Calm Calm - N/A   Clear
9:51 PM 43.0 °F 26.1 °F 51% 30.25 in 10.0 mi Calm Calm - N/A   Clear
10:51 PM 39.0 °F 28.9 °F 67% 30.27 in 10.0 mi Calm Calm - N/A   Clear
11:51 PM 37.9 °F 28.9 °F 70% 30.30 in 10.0 mi Calm Calm - N/A   Clear